Location: Melbourne
(37.8170°S, 144.9670°E)
Time: 09:30:14
(UTC+11:00)

CZ-3 R/B - Visible Passes

Search period start: 27 January 2015 00:00
Search period end: 06 February 2015 00:00
Orbit: 190 x 14173 km, 28.5° (Epoch: 26 January)

Date Brightness Start Highest point End Pass type
(mag) Time Alt. Az. Time Alt. Az. Time Alt. Az.
27 Jan 6.8 01:16:18 21° NNE 01:43:26 25° NE 02:59:19 10° E visible
27 Jan 5.6 05:42:39 10° NW 07:30:16 61° N 07:46:45 10° E visible
28 Jan 6.6 03:27:19 25° NNW 04:50:33 49° NNE 05:27:15 10° E visible
29 Jan 6.8 01:15:52 23° NNE 01:43:14 28° NE 02:59:21 10° E visible
29 Jan 5.6 05:38:55 10° NW 07:28:53 63° N 07:45:33 10° E visible
30 Jan 6.6 03:25:26 27° NNW 04:47:33 51° NNE 05:24:56 10° E visible
31 Jan 6.8 01:12:46 25° NNE 01:38:54 30° NE 02:56:15 10° E visible
31 Jan 5.6 05:34:14 11° NW 07:24:38 65° N 07:41:45 10° E visible
01 Feb 6.6 03:20:53 29° NNW 04:41:12 53° NNE 05:19:55 10° E visible
02 Feb 6.7 01:07:00 27° NNE 01:30:36 31° NE 02:50:07 10° E visible
02 Feb 5.6 05:28:12 13° NW 07:17:29 66° N 07:35:21 10° E visible
03 Feb 6.6 03:13:38 31° NNW 04:31:26 55° NNE 05:12:12 10° E visible
04 Feb 6.7 00:58:32 28° NNE 01:18:26 32° NE 02:40:58 10° E visible
04 Feb 5.7 05:19:30 15° NW 07:07:26 67° N 07:26:21 10° E visible
05 Feb 6.7 03:03:43 34° NNW 04:18:11 56° NNE 05:01:48 10° E visible
